Location: Hlohovi?ky
(49.8934°N, 13.6739°E)
Time: 01:56:36
(UTC+00:00)

Ariane Rocket - Pass Details

Date: 19 May 2025
Orbit: 755 x 765 km, 98.5° (Epoch: 23 June)

Event Time Altitude Azimuth Distance (km) Brightness Sun altitude
Exits shadow 19:37:00 - 131° (SE) 2,437 4.9 -6.8°
Reaches altitude 10° 19:37:23 10° 130° (SE) 2,293 4.8 -6.8°
Maximum altitude 19:41:58 36° 64° (ENE) 1,194 3.9 -7.4°
Drops below altitude 10° 19:46:35 10° 359° (N) 2,312 6.2 -7.9°
Sets 19:49:03 0° 352° (N) 3,244 7.2 -8.2°
